TimePDT,TemperatureF,Dew PointF,Humidity,Sea Level PressureIn,VisibilityMPH,Wind Direction,Wind SpeedMPH,Gust SpeedMPH,PrecipitationIn,Events,Conditions,WindDirDegrees,DateUTC
12:15 AM,53.6,33.8,47,30.11,10.0,West,8.1,-,N/A,,Clear,280,2013-05-20 07:15:00
12:35 AM,53.6,33.8,47,30.10,10.0,West,6.9,-,N/A,,Clear,280,2013-05-20 07:35:00
12:55 AM,53.6,35.6,51,30.11,10.0,WNW,4.6,-,N/A,,Clear,290,2013-05-20 07:55:00
1:15 AM,53.6,35.6,51,30.10,10.0,WNW,6.9,-,N/A,,Clear,290,2013-05-20 08:15:00
1:35 AM,53.6,35.6,51,30.10,10.0,WNW,5.8,-,N/A,,Clear,300,2013-05-20 08:35:00
1:55 AM,53.6,35.6,51,30.10,10.0,WNW,3.5,-,N/A,,Clear,290,2013-05-20 08:55:00
2:15 AM,53.6,33.8,47,30.10,10.0,WNW,6.9,-,N/A,,Clear,290,2013-05-20 09:15:00
2:35 AM,50.0,33.8,54,30.10,10.0,NNW,5.8,-,N/A,,Clear,340,2013-05-20 09:35:00
2:55 AM,50.0,33.8,54,30.10,10.0,North,4.6,-,N/A,,Clear,350,2013-05-20 09:55:00
3:15 AM,50.0,33.8,54,30.09,10.0,North,5.8,-,N/A,,Clear,360,2013-05-20 10:15:00
3:35 AM,50.0,33.8,54,30.09,10.0,North,3.5,-,N/A,,Clear,10,2013-05-20 10:35:00
3:55 AM,50.0,35.6,58,30.09,10.0,Calm,Calm,-,N/A,,Clear,0,2013-05-20 10:55:00
4:15 AM,44.6,33.8,66,30.09,10.0,SSE,3.5,-,N/A,,Clear,150,2013-05-20 11:15:00
4:35 AM,46.4,33.8,62,30.09,10.0,ESE,4.6,-,N/A,,Clear,110,2013-05-20 11:35:00
4:55 AM,44.6,35.6,71,30.09,10.0,East,3.5,-,N/A,,Clear,90,2013-05-20 11:55:00
5:15 AM,46.4,33.8,62,30.10,10.0,Calm,Calm,-,N/A,,Clear,0,2013-05-20 12:15:00
5:35 AM,41.0,33.8,76,30.10,10.0,ESE,5.8,-,N/A,,Clear,120,2013-05-20 12:35:00
5:55 AM,44.6,33.8,66,30.11,10.0,Calm,Calm,-,N/A,,Clear,0,2013-05-20 12:55:00
6:15 AM,42.8,33.8,70,30.12,9.0,East,4.6,-,N/A,,Clear,100,2013-05-20 13:15:00
6:35 AM,46.4,35.6,66,30.12,10.0,ESE,4.6,-,N/A,,Clear,110,2013-05-20 13:35:00
6:55 AM,48.2,33.8,58,30.12,10.0,NNE,3.5,-,N/A,,Clear,30,2013-05-20 13:55:00
7:15 AM,51.8,37.4,58,30.12,10.0,Calm,Calm,-,N/A,,Clear,0,2013-05-20 14:15:00
7:35 AM,57.2,37.4,48,30.13,9.0,ESE,3.5,-,N/A,,Clear,120,2013-05-20 14:35:00
7:55 AM,60.8,37.4,42,30.13,10.0,SE,10.4,-,N/A,,Clear,130,2013-05-20 14:55:00
8:15 AM,64.4,32.0,30,30.13,10.0,ESE,12.7,-,N/A,,Clear,120,2013-05-20 15:15:00
8:35 AM,66.2,26.6,23,30.13,10.0,ESE,15.0,-,N/A,,Clear,120,2013-05-20 15:35:00
8:55 AM,68.0,24.8,20,30.13,10.0,SE,19.6,23.0,N/A,,Clear,140,2013-05-20 15:55:00
9:15 AM,68.0,24.8,20,30.13,10.0,SE,17.3,26.5,N/A,,Clear,130,2013-05-20 16:15:00
9:35 AM,68.0,23.0,18,30.13,10.0,ESE,20.7,26.5,N/A,,Clear,120,2013-05-20 16:35:00
9:55 AM,69.8,23.0,17,30.13,10.0,ESE,19.6,28.8,N/A,,Clear,120,2013-05-20 16:55:00
10:15 AM,71.6,23.0,16,30.13,10.0,SE,21.9,26.5,N/A,,Clear,130,2013-05-20 17:15:00
10:35 AM,71.6,23.0,16,30.14,10.0,ESE,16.1,26.5,N/A,,Clear,120,2013-05-20 17:35:00
11:15 AM,71.6,24.8,17,30.14,10.0,ESE,17.3,26.5,N/A,,Clear,120,2013-05-20 18:15:00
11:35 AM,73.4,23.0,15,30.14,10.0,SE,16.1,20.7,N/A,,Clear,130,2013-05-20 18:35:00
11:55 AM,73.4,23.0,15,30.14,10.0,ESE,16.1,21.9,N/A,,Clear,110,2013-05-20 18:55:00
12:15 PM,73.4,23.0,15,30.14,10.0,SSE,10.4,20.7,N/A,,Clear,150,2013-05-20 19:15:00
12:35 PM,73.4,24.8,16,30.13,10.0,SE,9.2,-,N/A,,Clear,140,2013-05-20 19:35:00
12:55 PM,75.2,23.0,14,30.13,10.0,South,5.8,18.4,N/A,,Clear,170,2013-05-20 19:55:00
1:15 PM,73.4,23.0,15,30.13,10.0,SE,10.4,18.4,N/A,,Clear,140,2013-05-20 20:15:00
1:35 PM,75.2,21.2,13,30.12,10.0,South,8.1,-,N/A,,Clear,190,2013-05-20 20:35:00
1:55 PM,75.2,21.2,13,30.12,10.0,SE,12.7,17.3,N/A,,Clear,130,2013-05-20 20:55:00
2:15 PM,75.2,19.4,12,30.12,10.0,East,5.8,-,N/A,,Clear,100,2013-05-20 21:15:00
2:55 PM,77.0,23.0,13,30.10,10.0,East,8.1,-,N/A,,Clear,90,2013-05-20 21:55:00
3:15 PM,77.0,23.0,13,30.10,10.0,ESE,6.9,-,N/A,,Clear,110,2013-05-20 22:15:00
3:35 PM,77.0,19.4,12,30.09,10.0,East,4.6,-,N/A,,Clear,80,2013-05-20 22:35:00
3:55 PM,77.0,19.4,12,30.08,10.0,SW,6.9,-,N/A,,Clear,220,2013-05-20 22:55:00
4:15 PM,78.8,17.6,10,30.07,10.0,SSW,4.6,-,N/A,,Clear,200,2013-05-20 23:15:00
4:35 PM,78.8,23.0,13,30.07,10.0,WNW,11.5,-,N/A,,Clear,300,2013-05-20 23:35:00
4:55 PM,78.8,26.6,15,30.06,10.0,NW,12.7,17.3,N/A,,Unknown,320,2013-05-20 23:55:00
5:15 PM,78.8,28.4,16,30.06,10.0,NW,9.2,-,N/A,,Clear,320,2013-05-21 00:15:00
5:35 PM,77.0,28.4,17,30.06,10.0,NW,12.7,16.1,N/A,,Clear,310,2013-05-21 00:35:00
5:55 PM,77.0,28.4,17,30.05,10.0,NW,12.7,-,N/A,,Clear,320,2013-05-21 00:55:00
6:15 PM,77.0,30.2,18,30.05,10.0,WNW,12.7,-,N/A,,Clear,300,2013-05-21 01:15:00
6:35 PM,75.2,30.2,19,30.05,10.0,NW,11.5,-,N/A,,Clear,320,2013-05-21 01:35:00
6:55 PM,75.2,30.2,19,30.06,10.0,WNW,11.5,-,N/A,,Clear,300,2013-05-21 01:55:00
7:35 PM,71.6,32.0,23,30.07,10.0,West,9.2,-,N/A,,Clear,280,2013-05-21 02:35:00
7:55 PM,69.8,32.0,25,30.07,10.0,West,11.5,-,N/A,,Clear,260,2013-05-21 02:55:00
8:15 PM,68.0,35.6,30,30.07,10.0,West,9.2,-,N/A,,Clear,260,2013-05-21 03:15:00
8:35 PM,66.2,35.6,32,30.08,10.0,West,8.1,-,N/A,,Clear,270,2013-05-21 03:35:00
8:55 PM,64.4,35.6,34,30.08,10.0,West,8.1,-,N/A,,Clear,260,2013-05-21 03:55:00
9:15 PM,64.4,33.8,32,30.08,10.0,West,9.2,-,N/A,,Clear,270,2013-05-21 04:15:00
9:35 PM,62.6,33.8,34,30.09,10.0,West,8.1,-,N/A,,Clear,270,2013-05-21 04:35:00
9:55 PM,64.4,33.8,32,30.09,10.0,West,5.8,-,N/A,,Clear,270,2013-05-21 04:55:00
10:35 PM,59.0,32.0,36,30.09,10.0,NW,5.8,-,N/A,,Clear,310,2013-05-21 05:35:00
10:55 PM,59.0,32.0,36,30.09,10.0,NNE,3.5,-,N/A,,Clear,20,2013-05-21 05:55:00
11:35 PM,59.0,32.0,36,30.09,10.0,West,6.9,-,N/A,,Clear,260,2013-05-21 06:35:00
11:55 PM,59.0,32.0,36,30.09,10.0,WSW,3.5,-,N/A,,Clear,250,2013-05-21 06:55:00